Theta_e
314 316 318 318 316 316 317 319 323 324 325 326 327 327 328 329 330 330 328 328 330 331
312 314 314 316 316 316 317 319 323 322 322 323 324 325 326 325 325 328 328 328 329 328
310 313 313 313 314 315 316 317 321 319 320 319 321 322 321 320 322 323 325 328 328 328
310 310 311 311 311 311 313 315 318 318 317 317 318 318 317 317 318 319 321 323 324 324
305 306 306 307 309 311 311 312 314 316 317 316 317 317 315 314 317 318 319 320 321 321
303 303 304 304 305 306 307 309 311 312 313 315 316 317 315 315 316 318 319 320 320 321
302 302 302 303 304 305 306 307 308 309 310 311 314 316 315 315 316 317 317 319 321 321
301 301 302 302 303 304 305 306 307 307 309 310 312 313 314 315 316 316 315 317 319 321
301 301 301 302 302 303 303 304 304 305 306 307 309 307 307 312 314 315 314 314 315 318
300 300 300 301 301 301 301 302 302 303 304 304 306 302 302 305 311 311 310 311 313 314
298 298 299 298 298 297 298 298 299 300 301 302 303 301 299 301 308 308 308 309 309 310
298 298 297 296 295 296 297 296 297 298 298 298 300 299 298 300 304 304 304 307 308 309
295 295 294 295 294 295 294 294 296 296 296 298 302 298 297 298 303 303 305 307 309 305
294 294 294 292 293 293 293 293 293 294 296 297 298 301 296 296 302 301 302 304 307 312
Wind_Speed
3 3 4 5 5 4 4 4 5 5 5 5 4 3 3 4 6 7 7 10 10 9
6 6 6 7 5 4 5 4 6 6 6 6 6 5 3 3 4 5 7 7 8 8
6 6 6 6 8 7 6 6 7 8 8 7 6 6 5 4 5 5 5 5 8 7
4 5 5 4 5 5 5 6 7 8 8 8 8 7 6 7 6 6 7 7 8 9
5 3 4 4 5 4 6 5 7 8 8 8 8 7 8 8 7 7 7 8 7 10
7 6 6 6 6 5 6 6 7 7 9 10 9 9 10 10 9 9 8 9 8 9
8 7 7 7 7 7 7 7 8 9 11 12 12 12 12 11 10 10 9 9 9 10
7 8 9 9 10 10 10 12 11 11 11 11 12 10 12 13 12 11 10 9 9 9
9 10 11 11 11 12 12 13 13 14 14 14 10 12 16 14 10 10 10 9 9 8
13 14 13 13 13 13 14 14 16 16 15 17 15 16 18 18 11 10 9 9 9 10
14 14 13 14 12 14 17 17 14 13 15 16 15 18 19 19 13 10 10 10 12 12
15 15 15 16 16 16 11 11 14 17 18 21 20 19 19 16 10 9 10 10 12 14
16 18 18 14 14 16 15 16 13 15 17 19 15 13 16 16 8 7 7 10 12 16
16 16 13 16 14 14 13 14 15 14 14 16 16 14 17 17 9 7 7 8 8 9
Wind_Direction
227 220 211 198 198 201 197 185 182 183 196 206 217 229 219 225 244 253 251 254 245 245
221 218 217 218 212 205 208 199 193 192 198 207 207 220 234 251 259 221 262 256 253 252
259 245 241 224 218 211 213 217 202 201 206 204 207 207 211 241 262 272 265 250 262 253
324 323 309 290 287 298 326 277 257 233 213 212 211 210 209 221 238 241 264 270 255 264
331 277 274 289 298 284 263 254 247 255 255 243 221 219 217 228 227 229 242 258 260 269
288 296 290 278 271 267 260 261 263 250 250 254 252 241 229 230 229 228 227 242 238 251
290 285 281 277 273 267 262 253 253 249 250 248 246 242 241 240 232 236 231 231 232 235
275 276 279 276 275 274 268 264 253 254 253 248 242 238 237 239 242 238 239 239 234 239
277 276 273 271 268 263 262 258 259 259 253 251 245 235 227 229 237 242 247 256 260 246
285 283 282 282 279 272 270 266 260 257 253 251 246 234 230 231 233 235 243 246 256 266
287 284 285 281 277 282 278 269 269 271 269 261 254 236 230 227 235 237 243 247 252 257
283 285 290 280 280 275 276 277 271 263 266 259 259 234 227 223 227 237 247 251 252 253
301 289 282 279 284 277 274 275 265 271 271 279 270 232 225 221 225 229 241 248 253 247
287 285 287 286 281 282 275 269 267 264 269 269 252 250 225 223 218 232 245 253 258 253